This demonstration page uses our WeatherBlox Daily Observations layout. Learn more.

Left ArrowRight Arrow

Hourly Observations for July 31, 2021

Temp ( °F °C ) Dew Point ( °F °C ) Humidity (%) Winds ( mph kmh ) Pressure ( in mb ) Visibility ( mi km ) Precip ( " mm )
12:53 am 00:53 Clear 80 26.7 60 15.6 51 51 ESE 7 11 29.94 1014 10 16 0.00 0.00
1:53 am 01:53 Clear 80 26.7 58 14.4 47 47 SE 8 13 29.94 1014 10 16 0.00 0.00
2:53 am 02:53 Clear 77 25 58 14.4 52 52 ESE 7 11 29.94 1014 10 16 0.00 0.00
3:53 am 03:53 Clear 76 24.4 57 13.9 52 52 SE 5 7 29.93 1014 10 16 0.00 0.00
4:53 am 04:53 Clear 75 23.9 58 14.4 55 55 ESE 7 11 29.94 1014 10 16 0.00 0.00
5:53 am 05:53 Clear 74 23.3 58 14.4 57 57 VRB 3 6 29.95 1014 10 16 0.00 0.00
6:53 am 06:53 Clear 74 23.3 60 15.6 62 62 ESE 7 11 29.96 1015 10 16 0.00 0.00
7:53 am 07:53 Sunny 76 24.4 61 16.1 60 60 SE 9 15 29.98 1015 10 16 0.00 0.00
8:53 am 08:53 Sunny 79 26.1 62 16.7 56 56 SE 14 22 29.99 1016 10 16 0.00 0.00
9:53 am 09:53 Sunny 83 28.3 63 17.2 51 51 SSE 12 19 30.01 1016 10 16 0.00 0.00
10:53 am 10:53 Sunny 86 30 63 17.2 46 46 SE 9 15 30.00 1016 10 16 0.00 0.00
11:53 am 11:53 Sunny 91 32.8 63 17.2 39 39 SE 8 13 30.00 1016 10 16 0.00 0.00
12:53 pm 12:53 Sunny 93 33.9 60 15.6 33 33 SSE 14 22 29.98 1015 10 16 0.00 0.00
1:53 pm 13:53 Sunny 96 35.6 59 15 29 29 S 8 13 29.94 1014 10 16 0.00 0.00
2:53 pm 14:53 Partly Cloudy 96 35.6 58 14.4 28 28 SE 8 13 29.92 1013 10 16 0.00 0.00
3:53 pm 15:53 Sunny 97 36.1 56 13.3 25 25 SE 10 17 29.90 1013 10 16 0.00 0.00
4:53 pm 16:53 Sunny 98 36.7 57 13.9 25 25 VRB 6 9 29.88 1012 10 16 0.00 0.00
5:53 pm 17:53 Mostly Sunny 98 36.7 56 13.3 24 24 ESE 7 11 29.86 1011 10 16 0.00 0.00
6:53 pm 18:53 Mostly Sunny 98 36.7 56 13.3 24 24 SSW 10 17 29.85 1011 10 16 0.00 0.00
7:53 pm 19:53 Sunny 96 35.6 55 12.8 25 25 SE 10 17 29.85 1011 10 16 0.00 0.00
8:53 pm 20:53 Partly Cloudy 93 33.9 56 13.3 29 29 SW 9 15 29.86 1011 10 16 0.00 0.00
9:53 pm 21:53 Clear 92 33.3 55 12.8 29 29 SW 3 6 29.87 1012 10 16 0.00 0.00
10:53 pm 22:53 Clear 87 30.6 56 13.3 35 35 WSW 3 6 29.89 1012 10 16 0.00 0.00
11:53 pm 23:53 Mostly Clear 84 28.9 57 13.9 40 40 WSW 3 6 29.89 1012 10 16 0.00 0.00

Powered by AerisWeather